Time,TemperatureF,DewpointF,PressureIn,WindDirection,WindDirectionDegrees,WindSpeedMPH,WindSpeedGustMPH,Humidity,HourlyPrecipIn,Conditions,Clouds,dailyrainin,SoftwareType,DateUTC
2013-01-22 00:00:00,3.2,-4.4,30.13,West,279,3.0,3.0,70,0.00,,,0.00,Wunderground v.1.15,2013-01-22 05:00:00,
2013-01-22 00:01:00,3.2,-4.4,30.13,West,277,3.0,5.0,70,0.00,,,0.00,Wunderground v.1.15,2013-01-22 05:01:00,
2013-01-22 00:06:00,3.2,-4.4,30.13,West,266,4.0,7.0,70,0.00,,,0.00,Wunderground v.1.15,2013-01-22 05:06:00,
2013-01-22 00:11:00,3.3,-4.3,30.13,NW,321,6.0,6.0,70,0.00,,,0.00,Wunderground v.1.15,2013-01-22 05:11:00,
2013-01-22 00:13:00,3.2,-4.4,30.13,WNW,301,6.0,8.0,70,0.00,,,0.00,Wunderground v.1.15,2013-01-22 05:13:00,
2013-01-22 00:19:00,3.2,-4.4,30.14,WNW,287,6.0,11.0,70,0.00,,,0.00,Wunderground v.1.15,2013-01-22 05:19:00,
2013-01-22 00:24:00,3.2,-4.1,30.13,NW,311,7.0,7.0,71,0.00,,,0.00,Wunderground v.1.15,2013-01-22 05:24:00,
2013-01-22 00:30:00,3.1,-4.2,30.13,West,275,6.0,6.0,71,0.00,,,0.00,Wunderground v.1.15,2013-01-22 05:30:00,
2013-01-22 00:36:00,3.1,-4.2,30.13,West,275,6.0,7.0,71,0.00,,,0.00,Wunderground v.1.15,2013-01-22 05:36:00,
2013-01-22 00:41:00,3.0,-4.3,30.13,WNW,298,6.0,6.0,71,0.00,,,0.00,Wunderground v.1.15,2013-01-22 05:41:00,
2013-01-22 00:47:00,2.8,-4.2,30.13,WNW,285,5.0,9.0,72,0.00,,,0.00,Wunderground v.1.15,2013-01-22 05:47:00,
2013-01-22 00:52:00,2.8,-4.2,30.13,WNW,288,5.0,6.0,72,0.00,,,0.00,Wunderground v.1.15,2013-01-22 05:52:00,
2013-01-22 00:58:00,2.7,-4.6,30.13,WNW,295,6.0,13.0,71,0.00,,,0.00,Wunderground v.1.15,2013-01-22 05:58:00,
2013-01-22 01:04:00,2.7,-4.9,30.13,WNW,289,6.0,8.0,70,0.00,,,0.00,Wunderground v.1.15,2013-01-22 06:04:00,
2013-01-22 01:09:00,2.6,-5.0,30.14,West,272,5.0,8.0,70,0.00,,,0.00,Wunderground v.1.15,2013-01-22 06:09:00,
2013-01-22 01:14:00,2.6,-5.3,30.13,WNW,284,6.0,12.0,69,0.00,,,0.00,Wunderground v.1.15,2013-01-22 06:14:00,
2013-01-22 01:20:00,2.6,-5.3,30.13,WNW,298,6.0,9.0,69,0.00,,,0.00,Wunderground v.1.15,2013-01-22 06:20:00,
2013-01-22 01:26:00,2.6,-5.3,30.14,NW,306,7.0,12.0,69,0.00,,,0.00,Wunderground v.1.15,2013-01-22 06:26:00,
2013-01-22 01:32:00,2.5,-5.1,30.14,WNW,294,6.0,7.0,70,0.00,,,0.00,Wunderground v.1.15,2013-01-22 06:32:00,
2013-01-22 01:37:00,2.4,-5.2,30.14,West,277,5.0,10.0,70,0.00,,,0.00,Wunderground v.1.15,2013-01-22 06:37:00,
2013-01-22 01:43:00,2.4,-5.2,30.14,WNW,283,5.0,6.0,70,0.00,,,0.00,Wunderground v.1.15,2013-01-22 06:43:00,
2013-01-22 01:49:00,2.2,-4.8,30.14,WNW,294,4.0,8.0,72,0.00,,,0.00,Wunderground v.1.15,2013-01-22 06:49:00,
2013-01-22 01:55:00,2.1,-4.6,30.14,WNW,295,4.0,6.0,73,0.00,,,0.00,Wunderground v.1.15,2013-01-22 06:55:00,
2013-01-22 02:00:00,2.0,-4.7,30.14,West,267,3.0,3.0,73,0.00,,,0.00,Wunderground v.1.15,2013-01-22 07:00:00,
2013-01-22 02:06:00,1.9,-4.8,30.15,West,277,3.0,6.0,73,0.00,,,0.00,Wunderground v.1.15,2013-01-22 07:06:00,
2013-01-22 02:11:00,1.8,-5.2,30.15,West,273,4.0,7.0,72,0.00,,,0.00,Wunderground v.1.15,2013-01-22 07:11:00,
2013-01-22 02:17:00,1.8,-5.2,30.15,WNW,294,5.0,8.0,72,0.00,,,0.00,Wunderground v.1.15,2013-01-22 07:17:00,
2013-01-22 02:22:00,1.8,-5.4,30.15,NW,306,5.0,8.0,71,0.00,,,0.00,Wunderground v.1.15,2013-01-22 07:22:00,
2013-01-22 02:28:00,1.8,-5.7,30.15,WNW,286,6.0,9.0,70,0.00,,,0.00,Wunderground v.1.15,2013-01-22 07:28:00,
2013-01-22 02:34:00,1.7,-5.5,30.16,WNW,288,7.0,9.0,71,0.00,,,0.00,Wunderground v.1.15,2013-01-22 07:34:00,
2013-01-22 02:40:00,1.6,-5.3,30.16,WNW,288,7.0,7.0,72,0.00,,,0.00,Wunderground v.1.15,2013-01-22 07:40:00,
2013-01-22 02:45:00,1.5,-5.4,30.16,WNW,288,6.0,7.0,72,0.00,,,0.00,Wunderground v.1.15,2013-01-22 07:45:00,
2013-01-22 02:51:00,1.4,-5.0,30.16,WNW,288,4.0,7.0,74,0.00,,,0.00,Wunderground v.1.15,2013-01-22 07:51:00,
2013-01-22 02:56:00,1.3,-5.1,30.17,WNW,294,5.0,7.0,74,0.00,,,0.00,Wunderground v.1.15,2013-01-22 07:56:00,
2013-01-22 03:02:00,1.2,-4.9,30.17,NW,309,6.0,6.0,75,0.00,,,0.00,Wunderground v.1.15,2013-01-22 08:02:00,
2013-01-22 03:08:00,1.1,-5.0,30.17,WSW,257,5.0,9.0,75,0.00,,,0.00,Wunderground v.1.15,2013-01-22 08:08:00,
2013-01-22 03:13:00,0.9,-5.2,30.17,WNW,292,6.0,9.0,75,0.00,,,0.00,Wunderground v.1.15,2013-01-22 08:13:00,
2013-01-22 03:19:00,0.8,-5.8,30.17,WNW,282,6.0,9.0,73,0.00,,,0.00,Wunderground v.1.15,2013-01-22 08:19:00,
2013-01-22 03:24:00,0.8,-6.1,30.17,WNW,298,6.0,12.0,72,0.00,,,0.00,Wunderground v.1.15,2013-01-22 08:24:00,
2013-01-22 03:30:00,0.6,-6.6,30.18,NW,305,6.0,7.0,71,0.00,,,0.00,Wunderground v.1.15,2013-01-22 08:30:00,
2013-01-22 03:36:00,0.5,-7.0,30.18,WNW,302,5.0,10.0,70,0.00,,,0.00,Wunderground v.1.15,2013-01-22 08:36:00,
2013-01-22 03:41:00,0.4,-7.1,30.18,WNW,299,6.0,6.0,70,0.00,,,0.00,Wunderground v.1.15,2013-01-22 08:41:00,
2013-01-22 03:47:00,0.3,-7.2,30.18,WNW,293,5.0,7.0,70,0.00,,,0.00,Wunderground v.1.15,2013-01-22 08:47:00,
2013-01-22 03:52:00,0.1,-7.7,30.18,NW,304,5.0,5.0,69,0.00,,,0.00,Wunderground v.1.15,2013-01-22 08:52:00,